Year,Month,Day,Hour,Minute,Value (Times are PST for barometer in hPa)
2022,12,27,00,00,977.75
2022,12,27,00,01,977.75
2022,12,27,00,02,977.75
2022,12,27,00,03,977.75
2022,12,27,00,04,977.75
2022,12,27,00,05,977.75
2022,12,27,00,06,977.75
2022,12,27,00,07,977.75
2022,12,27,00,08,977.75
2022,12,27,00,09,977.75
2022,12,27,00,10,977.75
2022,12,27,00,11,977.75
2022,12,27,00,12,977.75
2022,12,27,00,13,977.75
2022,12,27,00,14,977.73
2022,12,27,00,15,977.52
2022,12,27,00,16,977.52
2022,12,27,00,17,977.52
2022,12,27,00,18,977.52
2022,12,27,00,19,977.52
2022,12,27,00,20,977.52
2022,12,27,00,21,977.52
2022,12,27,00,22,977.52
2022,12,27,00,23,977.52
2022,12,27,00,24,977.52
2022,12,27,00,25,977.52
2022,12,27,00,26,977.52
2022,12,27,00,27,977.52
2022,12,27,00,28,977.52
2022,12,27,00,29,977.51
2022,12,27,00,30,977.41
2022,12,27,00,31,977.41
2022,12,27,00,32,977.41
2022,12,27,00,33,977.41
2022,12,27,00,34,977.41
2022,12,27,00,35,977.41
2022,12,27,00,36,977.41
2022,12,27,00,37,977.41
2022,12,27,00,38,977.41
2022,12,27,00,39,977.41
2022,12,27,00,40,977.41
2022,12,27,00,41,977.41
2022,12,27,00,42,977.41
2022,12,27,00,43,977.41
2022,12,27,00,44,977.39
2022,12,27,00,45,977.01
2022,12,27,00,46,977.01
2022,12,27,00,47,977.01
2022,12,27,00,48,977.01
2022,12,27,00,49,977.01
2022,12,27,00,50,977.01
2022,12,27,00,51,977.01
2022,12,27,00,52,977.01
2022,12,27,00,53,977.01
2022,12,27,00,54,977.01
2022,12,27,00,55,977.01
2022,12,27,00,56,977.01
2022,12,27,00,57,977.01
2022,12,27,00,58,977.01
2022,12,27,00,59,976.97
2022,12,27,01,00,976.63
2022,12,27,01,01,976.63
2022,12,27,01,02,976.63
2022,12,27,01,03,976.63
2022,12,27,01,04,976.63
2022,12,27,01,05,976.63
2022,12,27,01,06,976.63
2022,12,27,01,07,976.63
2022,12,27,01,08,976.63
2022,12,27,01,09,976.63
2022,12,27,01,10,976.63
2022,12,27,01,11,976.63
2022,12,27,01,12,976.63
2022,12,27,01,13,976.63
2022,12,27,01,14,976.59
2022,12,27,01,15,976.26
2022,12,27,01,16,976.26
2022,12,27,01,17,976.26
2022,12,27,01,18,976.26
2022,12,27,01,19,976.26
2022,12,27,01,20,976.26
2022,12,27,01,21,976.26
2022,12,27,01,22,976.26
2022,12,27,01,23,976.26
2022,12,27,01,24,976.26
2022,12,27,01,25,976.26
2022,12,27,01,26,976.26
2022,12,27,01,27,976.26
2022,12,27,01,28,976.26
2022,12,27,01,29,976.24
2022,12,27,01,30,976.09
2022,12,27,01,31,976.09
2022,12,27,01,32,976.09
2022,12,27,01,33,976.09
2022,12,27,01,34,976.09
2022,12,27,01,35,976.09
2022,12,27,01,36,976.09
2022,12,27,01,37,976.09
2022,12,27,01,38,976.09
2022,12,27,01,39,976.09
2022,12,27,01,40,976.09
2022,12,27,01,41,976.09
2022,12,27,01,42,976.09
2022,12,27,01,43,976.09
2022,12,27,01,44,976.08
2022,12,27,01,45,975.86
2022,12,27,01,46,975.86
2022,12,27,01,47,975.86
2022,12,27,01,48,975.86
2022,12,27,01,49,975.86
2022,12,27,01,50,975.86
2022,12,27,01,51,975.86
2022,12,27,01,52,975.86
2022,12,27,01,53,975.86
2022,12,27,01,54,975.86
2022,12,27,01,55,975.86
2022,12,27,01,56,975.86
2022,12,27,01,57,975.86
2022,12,27,01,58,975.86
2022,12,27,01,59,975.81
2022,12,27,02,00,975.35
2022,12,27,02,01,975.35
2022,12,27,02,02,975.35
2022,12,27,02,03,975.35
2022,12,27,02,04,975.35
2022,12,27,02,05,975.35
2022,12,27,02,06,975.35
2022,12,27,02,07,975.35
2022,12,27,02,08,975.35
2022,12,27,02,09,975.35
2022,12,27,02,10,975.35
2022,12,27,02,11,975.35
2022,12,27,02,12,975.35
2022,12,27,02,13,975.35
2022,12,27,02,14,975.31
2022,12,27,02,15,974.94
2022,12,27,02,16,974.94
2022,12,27,02,17,974.94
2022,12,27,02,18,974.94
2022,12,27,02,19,974.94
2022,12,27,02,20,974.94
2022,12,27,02,21,974.94
2022,12,27,02,22,974.94
2022,12,27,02,23,974.94
2022,12,27,02,24,974.94
2022,12,27,02,25,974.94
2022,12,27,02,26,974.94
2022,12,27,02,27,974.94
2022,12,27,02,28,974.94
2022,12,27,02,29,974.94
2022,12,27,02,30,974.98
2022,12,27,02,31,974.98
2022,12,27,02,32,974.98
2022,12,27,02,33,974.98
2022,12,27,02,34,974.98
2022,12,27,02,35,974.98
2022,12,27,02,36,974.98
2022,12,27,02,37,974.98
2022,12,27,02,38,974.98
2022,12,27,02,39,974.98
2022,12,27,02,40,974.98
2022,12,27,02,41,974.98
2022,12,27,02,42,974.98
2022,12,27,02,43,974.98
2022,12,27,02,44,974.95
2022,12,27,02,45,974.67
2022,12,27,02,46,974.67
2022,12,27,02,47,974.67
2022,12,27,02,48,974.67
2022,12,27,02,49,974.67
2022,12,27,02,50,974.67
2022,12,27,02,51,974.67
2022,12,27,02,52,974.67
2022,12,27,02,53,974.67
2022,12,27,02,54,974.67
2022,12,27,02,55,974.67
2022,12,27,02,56,974.67
2022,12,27,02,57,974.67
2022,12,27,02,58,974.67
2022,12,27,02,59,974.61
2022,12,27,03,00,974.06
2022,12,27,03,01,974.06
2022,12,27,03,02,974.06
2022,12,27,03,03,974.06
2022,12,27,03,04,974.06
2022,12,27,03,05,974.06
2022,12,27,03,06,974.06
2022,12,27,03,07,974.06
2022,12,27,03,08,974.06
2022,12,27,03,09,974.06
2022,12,27,03,10,974.06
2022,12,27,03,11,974.06
2022,12,27,03,12,974.06
2022,12,27,03,13,974.06
2022,12,27,03,14,974.04
2022,12,27,03,15,973.65
2022,12,27,03,16,973.65
2022,12,27,03,17,973.65
2022,12,27,03,18,973.65
2022,12,27,03,19,973.65
2022,12,27,03,20,973.65
2022,12,27,03,21,973.65
2022,12,27,03,22,973.65
2022,12,27,03,23,973.65
2022,12,27,03,24,973.65
2022,12,27,03,25,973.65
2022,12,27,03,26,973.65
2022,12,27,03,27,973.65
2022,12,27,03,28,973.65
2022,12,27,03,29,973.64
2022,12,27,03,30,973.52
2022,12,27,03,31,973.52
2022,12,27,03,32,973.52
2022,12,27,03,33,973.52
2022,12,27,03,34,973.52
2022,12,27,03,35,973.52
2022,12,27,03,36,973.52
2022,12,27,03,37,973.52
2022,12,27,03,38,973.52
2022,12,27,03,39,973.52
2022,12,27,03,40,973.52
2022,12,27,03,41,973.52
2022,12,27,03,42,973.52
2022,12,27,03,43,973.52
2022,12,27,03,44,973.48
2022,12,27,03,45,973.15
2022,12,27,03,46,973.15
2022,12,27,03,47,973.15
2022,12,27,03,48,973.15
2022,12,27,03,49,973.15
2022,12,27,03,50,973.15
2022,12,27,03,51,973.15
2022,12,27,03,52,973.15
2022,12,27,03,53,973.15
2022,12,27,03,54,973.15
2022,12,27,03,55,973.15
2022,12,27,03,56,973.15
2022,12,27,03,57,973.15
2022,12,27,03,58,973.15
2022,12,27,03,59,973.14
2022,12,27,04,00,973.08
2022,12,27,04,01,973.08
2022,12,27,04,02,973.08
2022,12,27,04,03,973.08
2022,12,27,04,04,973.08
2022,12,27,04,05,973.08
2022,12,27,04,06,973.08
2022,12,27,04,07,973.08
2022,12,27,04,08,973.08
2022,12,27,04,09,973.08
2022,12,27,04,10,973.08
2022,12,27,04,11,973.08
2022,12,27,04,12,973.08
2022,12,27,04,13,973.08
2022,12,27,04,14,973.07
2022,12,27,04,15,972.84
2022,12,27,04,16,972.84
2022,12,27,04,17,972.84
2022,12,27,04,18,972.84
2022,12,27,04,19,972.84
2022,12,27,04,20,972.84
2022,12,27,04,21,972.84
2022,12,27,04,22,972.84
2022,12,27,04,23,972.84
2022,12,27,04,24,972.84
2022,12,27,04,25,972.84
2022,12,27,04,26,972.84
2022,12,27,04,27,972.84
2022,12,27,04,28,972.84
2022,12,27,04,29,972.81
2022,12,27,04,30,972.20
2022,12,27,04,31,972.20
2022,12,27,04,32,972.20
2022,12,27,04,33,972.20
2022,12,27,04,34,972.20
2022,12,27,04,35,972.20
2022,12,27,04,36,972.20
2022,12,27,04,37,972.20
2022,12,27,04,38,972.20
2022,12,27,04,39,972.20
2022,12,27,04,40,972.20
2022,12,27,04,41,972.20
2022,12,27,04,42,972.20
2022,12,27,04,43,972.20
2022,12,27,04,44,972.19
2022,12,27,04,45,972.03
2022,12,27,04,46,972.03
2022,12,27,04,47,972.03
2022,12,27,04,48,972.03
2022,12,27,04,49,972.03
2022,12,27,04,50,972.03
2022,12,27,04,51,972.03
2022,12,27,04,52,972.03
2022,12,27,04,53,972.03
2022,12,27,04,54,972.03
2022,12,27,04,55,972.03
2022,12,27,04,56,972.03
2022,12,27,04,57,972.03
2022,12,27,04,58,972.03
2022,12,27,04,59,972.03
2022,12,27,05,00,971.96
2022,12,27,05,01,971.96
2022,12,27,05,02,971.96
2022,12,27,05,03,971.96
2022,12,27,05,04,971.96
2022,12,27,05,05,971.96
2022,12,27,05,06,971.96
2022,12,27,05,07,971.96
2022,12,27,05,08,971.96
2022,12,27,05,09,971.96
2022,12,27,05,10,971.96
2022,12,27,05,11,971.96
2022,12,27,05,12,971.96
2022,12,27,05,13,971.96
2022,12,27,05,14,971.93
2022,12,27,05,15,971.49
2022,12,27,05,16,971.49
2022,12,27,05,17,971.49
2022,12,27,05,18,971.49
2022,12,27,05,19,971.49
2022,12,27,05,20,971.49
2022,12,27,05,21,971.49
2022,12,27,05,22,971.49
2022,12,27,05,23,971.49
2022,12,27,05,24,971.49
2022,12,27,05,25,971.49
2022,12,27,05,26,971.49
2022,12,27,05,27,971.49
2022,12,27,05,28,971.49
2022,12,27,05,29,971.48
2022,12,27,05,30,971.32
2022,12,27,05,31,971.32
2022,12,27,05,32,971.32
2022,12,27,05,33,971.32
2022,12,27,05,34,971.32
2022,12,27,05,35,971.32
2022,12,27,05,36,971.32
2022,12,27,05,37,971.32
2022,12,27,05,38,971.32
2022,12,27,05,39,971.32
2022,12,27,05,40,971.32
2022,12,27,05,41,971.32
2022,12,27,05,42,971.32
2022,12,27,05,43,971.32
2022,12,27,05,44,971.28
2022,12,27,05,45,970.51
2022,12,27,05,46,970.51
2022,12,27,05,47,970.51
2022,12,27,05,48,970.51
2022,12,27,05,49,970.51
2022,12,27,05,50,970.51
2022,12,27,05,51,970.51
2022,12,27,05,52,970.51
2022,12,27,05,53,970.51
2022,12,27,05,54,970.51
2022,12,27,05,55,970.51
2022,12,27,05,56,970.51
2022,12,27,05,57,970.51
2022,12,27,05,58,970.51
2022,12,27,05,59,970.53
2022,12,27,06,00,970.88
2022,12,27,06,01,970.88
2022,12,27,06,02,970.88
2022,12,27,06,03,970.88
2022,12,27,06,04,970.88
2022,12,27,06,05,970.88
2022,12,27,06,06,970.88
2022,12,27,06,07,970.88
2022,12,27,06,08,970.88
2022,12,27,06,09,970.88
2022,12,27,06,10,970.88
2022,12,27,06,11,970.88
2022,12,27,06,12,970.88
2022,12,27,06,13,970.88
2022,12,27,06,14,970.86
2022,12,27,06,15,970.44
2022,12,27,06,16,970.44
2022,12,27,06,17,970.44
2022,12,27,06,18,970.44
2022,12,27,06,19,970.44
2022,12,27,06,20,970.44
2022,12,27,06,21,970.44
2022,12,27,06,22,970.44
2022,12,27,06,23,970.44
2022,12,27,06,24,970.44
2022,12,27,06,25,970.44
2022,12,27,06,26,970.44
2022,12,27,06,27,970.44
2022,12,27,06,28,970.44
2022,12,27,06,29,970.45
2022,12,27,06,30,970.67
2022,12,27,06,31,970.67
2022,12,27,06,32,970.67
2022,12,27,06,33,970.67
2022,12,27,06,34,970.67
2022,12,27,06,35,970.67
2022,12,27,06,36,970.67
2022,12,27,06,37,970.67
2022,12,27,06,38,970.67
2022,12,27,06,39,970.67
2022,12,27,06,40,970.67
2022,12,27,06,41,970.67
2022,12,27,06,42,970.67
2022,12,27,06,43,970.67
2022,12,27,06,44,970.66
2022,12,27,06,45,970.54
2022,12,27,06,46,970.54
2022,12,27,06,47,970.54
2022,12,27,06,48,970.54
2022,12,27,06,49,970.54
2022,12,27,06,50,970.54
2022,12,27,06,51,970.54
2022,12,27,06,52,970.54
2022,12,27,06,53,970.54
2022,12,27,06,54,970.54
2022,12,27,06,55,970.54
2022,12,27,06,56,970.54
2022,12,27,06,57,970.54
2022,12,27,06,58,970.54
2022,12,27,06,59,970.56
2022,12,27,07,00,970.84
2022,12,27,07,01,970.84
2022,12,27,07,02,970.84
2022,12,27,07,03,970.84
2022,12,27,07,04,970.84
2022,12,27,07,05,970.84
2022,12,27,07,06,970.84
2022,12,27,07,07,970.84
2022,12,27,07,08,970.84
2022,12,27,07,09,970.84
2022,12,27,07,10,970.84
2022,12,27,07,11,970.84
2022,12,27,07,12,970.84
2022,12,27,07,13,970.84
2022,12,27,07,14,970.84
2022,12,27,07,15,970.74
2022,12,27,07,16,970.74
2022,12,27,07,17,970.74
2022,12,27,07,18,970.74
2022,12,27,07,19,970.74
2022,12,27,07,20,970.74
2022,12,27,07,21,970.74
2022,12,27,07,22,970.74
2022,12,27,07,23,970.74
2022,12,27,07,24,970.74
2022,12,27,07,25,970.74
2022,12,27,07,26,970.74
2022,12,27,07,27,970.74
2022,12,27,07,28,970.74
2022,12,27,07,29,970.72
2022,12,27,07,30,970.44
2022,12,27,07,31,970.44
2022,12,27,07,32,970.44
2022,12,27,07,33,970.44
2022,12,27,07,34,970.44
2022,12,27,07,35,970.44
2022,12,27,07,36,970.44
2022,12,27,07,37,970.44
2022,12,27,07,38,970.44
2022,12,27,07,39,970.44
2022,12,27,07,40,970.44
2022,12,27,07,41,970.44
2022,12,27,07,42,970.44
2022,12,27,07,43,970.44
2022,12,27,07,44,970.43
2022,12,27,07,45,970.30
2022,12,27,07,46,970.30
2022,12,27,07,47,970.30
2022,12,27,07,48,970.30
2022,12,27,07,49,970.30
2022,12,27,07,50,970.30
2022,12,27,07,51,970.30
2022,12,27,07,52,970.30
2022,12,27,07,53,970.30
2022,12,27,07,54,970.30
2022,12,27,07,55,970.30
2022,12,27,07,56,970.30
2022,12,27,07,57,970.30
2022,12,27,07,58,970.30
2022,12,27,07,59,970.29
2022,12,27,08,00,970.17
2022,12,27,08,01,970.17
2022,12,27,08,02,970.17
2022,12,27,08,03,970.17
2022,12,27,08,04,970.17
2022,12,27,08,05,970.17
2022,12,27,08,06,970.17
2022,12,27,08,07,970.17
2022,12,27,08,08,970.17
2022,12,27,08,09,970.17
2022,12,27,08,10,970.17
2022,12,27,08,11,970.17
2022,12,27,08,12,970.17
2022,12,27,08,13,970.17
2022,12,27,08,14,970.20
2022,12,27,08,15,970.47
2022,12,27,08,16,970.47
2022,12,27,08,17,970.47
2022,12,27,08,18,970.47
2022,12,27,08,19,970.47
2022,12,27,08,20,970.47
2022,12,27,08,21,970.47
2022,12,27,08,22,970.47
2022,12,27,08,23,970.47
2022,12,27,08,24,970.47
2022,12,27,08,25,970.47
2022,12,27,08,26,970.47
2022,12,27,08,27,970.47
2022,12,27,08,28,970.47
2022,12,27,08,29,970.47
2022,12,27,08,30,970.51
2022,12,27,08,31,970.51
2022,12,27,08,32,970.51
2022,12,27,08,33,970.51
2022,12,27,08,34,970.51
2022,12,27,08,35,970.51
2022,12,27,08,36,970.51
2022,12,27,08,37,970.51
2022,12,27,08,38,970.51
2022,12,27,08,39,970.51
2022,12,27,08,40,970.51
2022,12,27,08,41,970.51
2022,12,27,08,42,970.51
2022,12,27,08,43,970.51
2022,12,27,08,44,970.54
2022,12,27,08,45,971.08
2022,12,27,08,46,971.08
2022,12,27,08,47,971.08
2022,12,27,08,48,971.08
2022,12,27,08,49,971.08
2022,12,27,08,50,971.08
2022,12,27,08,51,971.08
2022,12,27,08,52,971.08
2022,12,27,08,53,971.08
2022,12,27,08,54,971.08
2022,12,27,08,55,971.08
2022,12,27,08,56,971.08
2022,12,27,08,57,971.08
2022,12,27,08,58,971.08
2022,12,27,08,59,971.10
2022,12,27,09,00,971.39
2022,12,27,09,01,971.39
2022,12,27,09,02,971.39
2022,12,27,09,03,971.39
2022,12,27,09,04,971.39
2022,12,27,09,05,971.39
2022,12,27,09,06,971.39
2022,12,27,09,07,971.39
2022,12,27,09,08,971.39
2022,12,27,09,09,971.39
2022,12,27,09,10,971.39
2022,12,27,09,11,971.39
2022,12,27,09,12,971.39
2022,12,27,09,13,971.39
2022,12,27,09,14,971.40
2022,12,27,09,15,971.66
2022,12,27,09,16,971.66
2022,12,27,09,17,971.66
2022,12,27,09,18,971.66
2022,12,27,09,19,971.66
2022,12,27,09,20,971.66
2022,12,27,09,21,971.66
2022,12,27,09,22,971.66
2022,12,27,09,23,971.66
2022,12,27,09,24,971.66
2022,12,27,09,25,971.66
2022,12,27,09,26,971.66
2022,12,27,09,27,971.66
2022,12,27,09,28,971.66
2022,12,27,09,29,971.68
2022,12,27,09,30,971.96
2022,12,27,09,31,971.96
2022,12,27,09,32,971.96
2022,12,27,09,33,971.96
2022,12,27,09,34,971.96
2022,12,27,09,35,971.96
2022,12,27,09,36,971.96
2022,12,27,09,37,971.96
2022,12,27,09,38,971.96
2022,12,27,09,39,971.96
2022,12,27,09,40,971.96
2022,12,27,09,41,971.96
2022,12,27,09,42,971.96
2022,12,27,09,43,971.96
2022,12,27,09,44,971.96
2022,12,27,09,45,971.93
2022,12,27,09,46,971.93
2022,12,27,09,47,971.93
2022,12,27,09,48,971.93
2022,12,27,09,49,971.93
2022,12,27,09,50,971.93
2022,12,27,09,51,971.93
2022,12,27,09,52,971.93
2022,12,27,09,53,971.93
2022,12,27,09,54,971.93
2022,12,27,09,55,971.93
2022,12,27,09,56,971.93
2022,12,27,09,57,971.93
2022,12,27,09,58,971.93
2022,12,27,09,59,971.93
2022,12,27,10,00,972.25
2022,12,27,10,01,972.27
2022,12,27,10,02,972.27
2022,12,27,10,03,972.27
2022,12,27,10,04,972.27
2022,12,27,10,05,972.27
2022,12,27,10,06,972.27
2022,12,27,10,07,972.27
2022,12,27,10,08,972.27
2022,12,27,10,09,972.27
2022,12,27,10,10,972.27
2022,12,27,10,11,972.27
2022,12,27,10,12,972.27
2022,12,27,10,13,972.27
2022,12,27,10,14,972.27
2022,12,27,10,15,972.53
2022,12,27,10,16,972.54
2022,12,27,10,17,972.54
2022,12,27,10,18,972.54
2022,12,27,10,19,972.54
2022,12,27,10,20,972.54
2022,12,27,10,21,972.54
2022,12,27,10,22,972.54
2022,12,27,10,23,972.54
2022,12,27,10,24,972.54
2022,12,27,10,25,972.54
2022,12,27,10,26,972.54
2022,12,27,10,27,972.54
2022,12,27,10,28,972.54
2022,12,27,10,29,972.54
2022,12,27,10,30,972.67
2022,12,27,10,31,972.67
2022,12,27,10,32,972.67
2022,12,27,10,33,972.67
2022,12,27,10,34,972.67
2022,12,27,10,35,972.67
2022,12,27,10,36,972.67
2022,12,27,10,37,972.67
2022,12,27,10,38,972.67
2022,12,27,10,39,972.67
2022,12,27,10,40,972.67
2022,12,27,10,41,972.67
2022,12,27,10,42,972.67
2022,12,27,10,43,972.67
2022,12,27,10,44,972.67
2022,12,27,10,45,972.88
2022,12,27,10,46,972.88
2022,12,27,10,47,972.88
2022,12,27,10,48,972.88
2022,12,27,10,49,972.88
2022,12,27,10,50,972.88
2022,12,27,10,51,972.88
2022,12,27,10,52,972.88
2022,12,27,10,53,972.88
2022,12,27,10,54,972.88
2022,12,27,10,55,972.88
2022,12,27,10,56,972.88
2022,12,27,10,57,972.88
2022,12,27,10,58,972.88
2022,12,27,10,59,972.88
2022,12,27,11,00,973.01
2022,12,27,11,01,973.01
2022,12,27,11,02,973.01
2022,12,27,11,03,973.01
2022,12,27,11,04,973.01
2022,12,27,11,05,973.01
2022,12,27,11,06,973.01
2022,12,27,11,07,973.01
2022,12,27,11,08,973.01
2022,12,27,11,09,973.01
2022,12,27,11,10,973.01
2022,12,27,11,11,973.01
2022,12,27,11,12,973.01
2022,12,27,11,13,973.01
2022,12,27,11,14,973.01
2022,12,27,11,15,973.11
2022,12,27,11,16,973.11
2022,12,27,11,17,973.11
2022,12,27,11,18,973.11
2022,12,27,11,19,973.11
2022,12,27,11,20,973.11
2022,12,27,11,21,973.11
2022,12,27,11,22,973.11
2022,12,27,11,23,973.11
2022,12,27,11,24,973.11
2022,12,27,11,25,973.11
2022,12,27,11,26,973.11
2022,12,27,11,27,973.11
2022,12,27,11,28,973.11
2022,12,27,11,29,973.11
2022,12,27,11,30,973.18
2022,12,27,11,31,973.18
2022,12,27,11,32,973.18
2022,12,27,11,33,973.18
2022,12,27,11,34,973.18
2022,12,27,11,35,973.18
2022,12,27,11,36,973.18
2022,12,27,11,37,973.18
2022,12,27,11,38,973.18
2022,12,27,11,39,973.18
2022,12,27,11,40,973.18
2022,12,27,11,41,973.18
2022,12,27,11,42,973.18
2022,12,27,11,43,973.18
2022,12,27,11,44,973.18
2022,12,27,11,45,973.49
2022,12,27,11,46,973.49
2022,12,27,11,47,973.49
2022,12,27,11,48,973.49
2022,12,27,11,49,973.49
2022,12,27,11,50,973.49
2022,12,27,11,51,973.49
2022,12,27,11,52,973.49
2022,12,27,11,53,973.49
2022,12,27,11,54,973.49
2022,12,27,11,55,973.49
2022,12,27,11,56,973.49
2022,12,27,11,57,973.49
2022,12,27,11,58,973.49
2022,12,27,11,59,973.49
2022,12,27,12,00,973.55
2022,12,27,12,01,973.55
2022,12,27,12,02,973.55
2022,12,27,12,03,973.55
2022,12,27,12,04,973.55
2022,12,27,12,05,973.55
2022,12,27,12,06,973.55
2022,12,27,12,07,973.55
2022,12,27,12,08,973.55
2022,12,27,12,09,973.55
2022,12,27,12,10,973.55
2022,12,27,12,11,973.55
2022,12,27,12,12,973.55
2022,12,27,12,13,973.55
2022,12,27,12,14,973.55
2022,12,27,12,15,973.91
2022,12,27,12,16,973.93
2022,12,27,12,17,973.93
2022,12,27,12,18,973.93
2022,12,27,12,19,973.93
2022,12,27,12,20,973.93
2022,12,27,12,21,973.93
2022,12,27,12,22,973.93
2022,12,27,12,23,973.93
2022,12,27,12,24,973.93
2022,12,27,12,25,973.93
2022,12,27,12,26,973.93
2022,12,27,12,27,973.93
2022,12,27,12,28,973.93
2022,12,27,12,29,973.93
2022,12,27,12,30,974.09
2022,12,27,12,31,974.10
2022,12,27,12,32,974.10
2022,12,27,12,33,974.10
2022,12,27,12,34,974.10
2022,12,27,12,35,974.10
2022,12,27,12,36,974.10
2022,12,27,12,37,974.10
2022,12,27,12,38,974.10
2022,12,27,12,39,974.10
2022,12,27,12,40,974.10
2022,12,27,12,41,974.10
2022,12,27,12,42,974.10
2022,12,27,12,43,974.10
2022,12,27,12,44,974.10
2022,12,27,12,45,974.25
2022,12,27,12,46,974.26
2022,12,27,12,47,974.26
2022,12,27,12,48,974.26
2022,12,27,12,49,974.26
2022,12,27,12,50,974.26
2022,12,27,12,51,974.26
2022,12,27,12,52,974.26
2022,12,27,12,53,974.26
2022,12,27,12,54,974.26
2022,12,27,12,55,974.26
2022,12,27,12,56,974.26
2022,12,27,12,57,974.26
2022,12,27,12,58,974.26
2022,12,27,12,59,974.26
2022,12,27,13,00,974.58
2022,12,27,13,01,974.60
2022,12,27,13,02,974.60
2022,12,27,13,03,974.60
2022,12,27,13,04,974.60
2022,12,27,13,05,974.60
2022,12,27,13,06,974.60
2022,12,27,13,07,974.60
2022,12,27,13,08,974.60
2022,12,27,13,09,974.60
2022,12,27,13,10,974.60
2022,12,27,13,11,974.60
2022,12,27,13,12,974.60
2022,12,27,13,13,974.60
2022,12,27,13,14,974.60
2022,12,27,13,15,974.64
2022,12,27,13,16,974.64
2022,12,27,13,17,974.64
2022,12,27,13,18,974.64
2022,12,27,13,19,974.64
2022,12,27,13,20,974.64
2022,12,27,13,21,974.64
2022,12,27,13,22,974.64
2022,12,27,13,23,974.64
2022,12,27,13,24,974.64
2022,12,27,13,25,974.64
2022,12,27,13,26,974.64
2022,12,27,13,27,974.64
2022,12,27,13,28,974.64
2022,12,27,13,29,974.64
2022,12,27,13,30,975.04
2022,12,27,13,31,975.04
2022,12,27,13,32,975.04
2022,12,27,13,33,975.04
2022,12,27,13,34,975.04
2022,12,27,13,35,975.04
2022,12,27,13,36,975.04
2022,12,27,13,37,975.04
2022,12,27,13,38,975.04
2022,12,27,13,39,975.04
2022,12,27,13,40,975.04
2022,12,27,13,41,975.04
2022,12,27,13,42,975.04
2022,12,27,13,43,975.04
2022,12,27,13,44,975.04
2022,12,27,13,45,975.31
2022,12,27,13,46,975.31
2022,12,27,13,47,975.31
2022,12,27,13,48,975.31
2022,12,27,13,49,975.31
2022,12,27,13,50,975.31
2022,12,27,13,51,975.31
2022,12,27,13,52,975.31
2022,12,27,13,53,975.31
2022,12,27,13,54,975.31
2022,12,27,13,55,975.31
2022,12,27,13,56,975.31
2022,12,27,13,57,975.31
2022,12,27,13,58,975.31
2022,12,27,13,59,975.31
2022,12,27,14,00,975.70
2022,12,27,14,01,975.72
2022,12,27,14,02,975.72
2022,12,27,14,03,975.72
2022,12,27,14,04,975.72
2022,12,27,14,05,975.72
2022,12,27,14,06,975.72
2022,12,27,14,07,975.72
2022,12,27,14,08,975.72
2022,12,27,14,09,975.72
2022,12,27,14,10,975.72
2022,12,27,14,11,975.72
2022,12,27,14,12,975.72
2022,12,27,14,13,975.72
2022,12,27,14,14,975.72
2022,12,27,14,15,976.23
2022,12,27,14,16,976.23
2022,12,27,14,17,976.23
2022,12,27,14,18,976.23
2022,12,27,14,19,976.23
2022,12,27,14,20,976.23
2022,12,27,14,21,976.23
2022,12,27,14,22,976.23
2022,12,27,14,23,976.23
2022,12,27,14,24,976.23
2022,12,27,14,25,976.23
2022,12,27,14,26,976.23
2022,12,27,14,27,976.23
2022,12,27,14,28,976.23
2022,12,27,14,29,976.23
2022,12,27,14,30,976.80
2022,12,27,14,31,976.80
2022,12,27,14,32,976.80
2022,12,27,14,33,976.80
2022,12,27,14,34,976.80
2022,12,27,14,35,976.80
2022,12,27,14,36,976.80
2022,12,27,14,37,976.80
2022,12,27,14,38,976.80
2022,12,27,14,39,976.80
2022,12,27,14,40,976.80
2022,12,27,14,41,976.80
2022,12,27,14,42,976.80
2022,12,27,14,43,976.80
2022,12,27,14,44,976.80
2022,12,27,14,45,977.26
2022,12,27,14,46,977.28
2022,12,27,14,47,977.28
2022,12,27,14,48,977.28
2022,12,27,14,49,977.28
2022,12,27,14,50,977.28
2022,12,27,14,51,977.28
2022,12,27,14,52,977.28
2022,12,27,14,53,977.28
2022,12,27,14,54,977.28
2022,12,27,14,55,977.28
2022,12,27,14,56,977.28
2022,12,27,14,57,977.28
2022,12,27,14,58,977.28
2022,12,27,14,59,977.28
2022,12,27,15,00,977.60
2022,12,27,15,01,977.62
2022,12,27,15,02,977.62
2022,12,27,15,03,977.62
2022,12,27,15,04,977.62
2022,12,27,15,05,977.62
2022,12,27,15,06,977.62
2022,12,27,15,07,977.62
2022,12,27,15,08,977.62
2022,12,27,15,09,977.62
2022,12,27,15,10,977.62
2022,12,27,15,11,977.62
2022,12,27,15,12,977.62
2022,12,27,15,13,977.62
2022,12,27,15,14,977.62
2022,12,27,15,15,977.92
2022,12,27,15,16,977.92
2022,12,27,15,17,977.92
2022,12,27,15,18,977.92
2022,12,27,15,19,977.92
2022,12,27,15,20,977.92
2022,12,27,15,21,977.92
2022,12,27,15,22,977.92
2022,12,27,15,23,977.92
2022,12,27,15,24,977.92
2022,12,27,15,25,977.92
2022,12,27,15,26,977.92
2022,12,27,15,27,977.92
2022,12,27,15,28,977.92
2022,12,27,15,29,977.92
2022,12,27,15,30,978.50
2022,12,27,15,31,978.50
2022,12,27,15,32,978.50
2022,12,27,15,33,978.50
2022,12,27,15,34,978.50
2022,12,27,15,35,978.50
2022,12,27,15,36,978.50
2022,12,27,15,37,978.50
2022,12,27,15,38,978.50
2022,12,27,15,39,978.50
2022,12,27,15,40,978.50
2022,12,27,15,41,978.50
2022,12,27,15,42,978.50
2022,12,27,15,43,978.50
2022,12,27,15,44,978.50
2022,12,27,15,45,979.04
2022,12,27,15,46,979.04
2022,12,27,15,47,979.04
2022,12,27,15,48,979.04
2022,12,27,15,49,979.04
2022,12,27,15,50,979.04
2022,12,27,15,51,979.04
2022,12,27,15,52,979.04
2022,12,27,15,53,979.04
2022,12,27,15,54,979.04
2022,12,27,15,55,979.04
2022,12,27,15,56,979.04
2022,12,27,15,57,979.04
2022,12,27,15,58,979.04
2022,12,27,15,59,979.04
2022,12,27,16,00,979.72
2022,12,27,16,01,979.72
2022,12,27,16,02,979.72
2022,12,27,16,03,979.72
2022,12,27,16,04,979.72
2022,12,27,16,05,979.72
2022,12,27,16,06,979.72
2022,12,27,16,07,979.72
2022,12,27,16,08,979.72
2022,12,27,16,09,979.72
2022,12,27,16,10,979.72
2022,12,27,16,11,979.72
2022,12,27,16,12,979.72
2022,12,27,16,13,979.72
2022,12,27,16,14,979.72
2022,12,27,16,15,979.99
2022,12,27,16,16,979.99
2022,12,27,16,17,979.99
2022,12,27,16,18,979.99
2022,12,27,16,19,979.99
2022,12,27,16,20,979.99
2022,12,27,16,21,979.99
2022,12,27,16,22,979.99
2022,12,27,16,23,979.99
2022,12,27,16,24,979.99
2022,12,27,16,25,979.99
2022,12,27,16,26,979.99
2022,12,27,16,27,979.99
2022,12,27,16,28,979.99
2022,12,27,16,29,979.99
2022,12,27,16,30,980.50
2022,12,27,16,31,980.50
2022,12,27,16,32,980.50
2022,12,27,16,33,980.50
2022,12,27,16,34,980.50
2022,12,27,16,35,980.50
2022,12,27,16,36,980.50